Location: Peterborough
(44.3091°N, 78.3197°W)
Time: 06:54:34
(UTC-04:00)

Vanguard 3 - Pass Details

Date: 25 February 2024
Orbit: 510 x 3234 km, 33.3° (Epoch: 24 April)

Event Time Altitude Azimuth Distance (km) Brightness Sun altitude
Rises 23:52:40 0° 263° (W) 7,202 12.0 -54.2°
Reaches altitude 10° 23:57:47 10° 260° (W) 6,124 11.6 -54.4°
Enters shadow 00:02:58 22° 254° (WSW) 5,026 11.0 -54.6°
